Weather Roundup
Issued by NWS

Home | Current Version | Previous Version | Graphics & Text | Print | Product List | Glossary Off
Versions: 1 2 3 4 5 6 7 8 9 10 11 12 13 14 15 16 17 18 19 20 21 22 23 24 25 26 27 28 29 30 31 32 33 34 35 36 37 38 39 40 41 42 43 44 45 46 47 48 49 50

778
NZUS93 KARX 210059
HRRWXR

CURRENT HOURLY OBSERVATIONS ACROSS
MUCH OF THE UPPER MISSISSIPPI VALLEY
NATIONAL WEATHER SERVICE LA CROSSE WI
700 PM CST TUE FEB 20 2018


...SOUTHEAST MINNESOTA...


CITY           SKY/WX    TMP DP  RH WIND       PRES   REMARKS
ROCHESTER      MIX PCPN  13   9  84 W20       30.17R WCI  -5
ROCHESTER/MAYO MOCLDY    14   9  80 W13G20    30.16R WCI   0
WINONA         CLOUDY    19  14  79 NW14      30.17R WCI   6
AUSTIN         FLURRIES  12   9  85 NW10      30.19R WCI  -1
ALBERT LEA     MOCLDY    12   7  79 W7        30.21R WCI   2
DODGE CENTER   FAIR      10   7  85 W9        30.18R WCI  -2
PRESTON        FLURRIES  14  10  84 NW12      30.17R WCI   0
OWATONNA       MOCLDY    10   7  85 CALM      30.22R
FARIBAULT      CLOUDY    12   7  79 W8        30.22R WCI   1
$$

...ELSEWHERE IN MINNESOTA...


CITY           SKY/WX    TMP DP  RH WIND       PRES   REMARKS
MINNEAPOLIS    FAIR      15   7  70 W14       30.19R WCI   0
INTNL FALLS    CLOUDY     8   3  80 W10       30.07R WCI  -6
DULUTH         MOCLDY    12   4  70 W12       30.04R WCI  -2
RED WING       CLOUDY    18   9  68 W10       30.18R WCI   6
REDWOOD FALLS  FAIR       7   2  80 NW9       30.26R WCI  -7
MANKATO        FAIR      10   5  80 NW18      30.26R WCI  -8
WORTHINGTON    FAIR       7   2  80 NW15      30.25R WCI -10
FAIRMONT       FAIR      10   6  84 NW15      30.27R WCI  -7
$$

...SOUTHWEST WISCONSIN...


CITY           SKY/WX    TMP DP  RH WIND       PRES   REMARKS
LA CROSSE      CLOUDY    23  17  78 NW16      30.16R WCI  10
PRAIRIE DU CHI CLOUDY    26  19  74 W15       30.15R WCI  13
BOSCOBEL       CLOUDY    28  19  69 W8        30.15R WCI  20
LONE ROCK      NOT AVBL
PLATTEVILLE    CLOUDY    28  25  89 W10       30.12R WCI  18
FORT MC COY    CLOUDY    23  20  89 W9        30.12R WCI  13
MAUSTON-NEW LI CLOUDY    27  23  86 W8        30.08R WCI  18
VIROQUA        CLOUDY    23  23 100 NW9       30.09R WCI  13
WIS DELLS      CLOUDY    27  24  86 W10G18    30.08R WCI  17
$$

...ELSEWHERE IN WISCONSIN...


CITY           SKY/WX    TMP DP  RH WIND       PRES   REMARKS
MILWAUKEE      MOCLDY    38  35  89 W12       30.01R WCI  30
MADISON        CLOUDY    30  26  85 NW7       30.08R WCI  23
GREEN BAY      CLOUDY    32  26  78 W17       30.02R WCI  21
EAU CLAIRE     NOT AVBL
BLACK RVR FLS  CLOUDY    23  17  78 W12G20    30.11R WCI  12
MEDFORD        CLOUDY    20  17  88 W10G18    30.01R WCI   8
WAUSAU         CLOUDY    23  19  85 W12       30.01R WCI  12
WIS RAPIDS     CLOUDY    24  18  77 NW13G21   30.08R WCI  12
MARSHFIELD     CLOUDY    21  17  84 NW17      30.04R WCI   7
RICE LAKE      FAIR      16  11  80 W5        30.11R WCI   9
$$

...NORTHEAST IOWA...


CITY           SKY/WX    TMP DP  RH WIND       PRES   REMARKS
WATERLOO       CLOUDY    19  13  77 NW16      30.21R WCI   4
DUBUQUE        MOCLDY    26  19  74 NW17      30.13R WCI  13
DECORAH        CLOUDY    19  16  86 W8G17     30.15R WCI   9
MASON CITY     FAIR      13   7  77 NW22      30.23R WCI  -6
CHARLES CITY   CLOUDY    16  16 100 NW14G22   30.20R WCI   1
OELWEIN        FLURRIES  19  19 100 NW17G24   30.19R WCI   4
$$

...ELSEWHERE IN IOWA...


CITY           SKY/WX    TMP DP  RH WIND       PRES   REMARKS
DES MOINES     FLURRIES  19  13  77 NW14      30.26R WCI   6
IOWA CITY      MOCLDY    27  18  69 NW16G22   30.21R WCI  15
FORT DODGE     FAIR      15  10  80 NW7       30.27R WCI   5
MARSHALLTOWN   CLOUDY    20  15  81 NW16      30.23R WCI   6
CEDAR RAPIDS   CLOUDY    24  18  77 NW22G28   30.18R WCI   9
$$

...NORTHERN ILLINOIS...


CITY           SKY/WX    TMP DP  RH WIND       PRES   REMARKS
CHICAGO-OHARE  LGT RAIN  38  35  89 W10       30.05R WCI  31
CHICAGO-MIDWAY LGT RAIN  41  40  96 W14       30.05R
MOLINE         CLOUDY    30  24  78 NW16G24   30.14R WCI  19
ROCKFORD       CLOUDY    32  29  88 NW16      30.09R WCI  21
PEORIA         LGT RAIN  34  31  88 NW6G17    30.12R WCI  29
$$

NOTE: "FAIR" INDICATES FEW OR NO CLOUDS BELOW 12,000 FEET WITH NO
SIGNIFICANT WEATHER AND/OR OBSTRUCTIONS TO VISIBILITY. WIND
SPEEDS ARE IN MILES-PER-HOUR.




USA.gov is the U.S. government's official web portal to all federal, state and local government web resources and services.